Cancun, Mexico

11:45 PM on March 26, 2017 (GMT +0000)
Cancun International

Weather History for MMUN - June, 2013

Change the Weather History Date:

Tuesday, June 4, 2013

  Actual Average Record
Temperature  
Mean Temperature 76 °F -  
Max Temperature 80 °F 88 °F 93 °F (1998)
Min Temperature 73 °F 75 °F 71 °F (1999)
Cooling Degree Days 12    
Growing Degree Days 26 (Base 50)    
Moisture  
Dew Point 76 °F    
Average Humidity 94    
Maximum Humidity 100    
Minimum Humidity 84    
Precipitation  
Precipitation 5.60 in - - ()
Sea Level Pressure  
Sea Level Pressure 29.82 in    
Wind  
Wind Speed 7 mph ()    
Max Wind Speed 14 mph    
Max Gust Speed -    
Visibility 4.6 miles    
Events Rain    
Averages and records for this station are not official NWS values.
T = Trace of Precipitation, MM = Missing Value Source: Averaged Metar Reports

Daily Weather History Graph

Daily Weather History Graph

Search for Another Location

Airport or City:

Trip Planner

Search our weather history database for the weather conditions in past years. The results will help you decide how hot, cold, wet, or windy it might be!

Date:

Astronomy

Jun. 04, 2013 Rise Set
Actual Time 6:05 AM CDT 7:26 PM CDT
Civil Twilight 5:40 AM CDT 7:51 PM CDT
Nautical Twilight 5:11 AM CDT 8:20 PM CDT
Astronomical Twilight 4:41 AM CDT 8:50 PM CDT
Moon 3:11 AM CDT (6/4) 4:14 PM CDT (6/4)
Length of Visible Light 14h 10m
Length of Day
13h 21m
Waning Crescent, 14% of the Moon is Illuminated
Jun 4
Waning Crescent
Jun 8
New
Jun 16
First Quarter
Jun 23
Full
Jun 29
Last Quarter

Hourly Weather History & Observations

Time (CDT) Temp. Heat Index Dew Point Humidity Pressure Visibility Wind Dir Wind Speed Gust Speed Precip Events Conditions
12:43 AM 77.0 °F - 77.0 °F 100% 29.83 in 6.0 mi WSW 3.5 mph - N/A   Overcast
1:43 AM 75.2 °F - 73.4 °F 94% 29.80 in 6.0 mi NNW 4.6 mph - N/A   Overcast
2:40 AM 75.2 °F - 73.4 °F 94% 29.79 in 4.0 mi North 5.8 mph - N/A Rain Rain
3:44 AM 75.2 °F - 75.2 °F 100% 29.79 in 4.0 mi NW 3.5 mph - N/A Rain Rain
4:40 AM 75.2 °F - 75.2 °F 100% 29.80 in 3.0 mi North 9.2 mph - N/A Rain Rain
5:44 AM 75.2 °F - 73.4 °F 94% 29.81 in 3.0 mi NNE 3.5 mph - N/A Rain Rain
6:44 AM 75.2 °F - 73.4 °F 94% 29.83 in 2.0 mi SSE 10.4 mph - N/A Rain Rain
7:41 AM 73.4 °F - 71.6 °F 94% 29.84 in 1.5 mi SSE 6.9 mph - N/A Rain Rain
8:42 AM 75.2 °F - 75.2 °F 100% 29.87 in 1.5 mi SSE 11.5 mph - N/A Rain Rain
9:41 AM 75.2 °F - 75.2 °F 100% 29.87 in 2.0 mi SSE 13.8 mph - N/A Rain Light Rain
10:40 AM 75.2 °F - 75.2 °F 100% 29.88 in 5.0 mi SE 6.9 mph - N/A Rain Light Rain
11:42 AM 77.0 °F - 75.2 °F 94% 29.85 in 5.0 mi SE 5.8 mph - N/A   Overcast
12:45 PM 78.8 °F - 75.2 °F 89% 29.85 in 7.0 mi SSE 8.1 mph - N/A   Overcast
1:42 PM 78.8 °F - 75.2 °F 89% 29.84 in 7.0 mi SSE 12.7 mph - N/A   Overcast
2:43 PM 78.8 °F - 75.2 °F 89% 29.82 in 7.0 mi SSE 12.7 mph - N/A   Overcast
3:44 PM 80.6 °F 86.2 °F 75.2 °F 84% 29.79 in 6.0 mi SE 12.7 mph - N/A   Overcast
4:43 PM 80.6 °F 87.1 °F 77.0 °F 89% 29.79 in 6.0 mi SSE 10.4 mph - N/A   Overcast
5:48 PM 78.8 °F - 77.0 °F 94% 29.80 in 6.0 mi SSE 13.8 mph - N/A   Overcast
6:34 PM 80.6 °F 87.1 °F 77.0 °F 89% 29.80 in 2.0 mi SSE 13.8 mph - N/A Rain Rain
6:42 PM 78.8 °F - 77.0 °F 94% 29.81 in 2.0 mi South 5.8 mph - N/A Rain Heavy Rain
7:01 PM 78.8 °F - 77.0 °F 94% 29.80 in 4.0 mi SE 11.5 mph - N/A Rain Rain
7:40 PM 78.8 °F - 77.0 °F 94% 29.80 in 3.0 mi SE 13.8 mph - N/A Rain Rain
8:04 PM 78.8 °F - 77.0 °F 94% 2.98 in 6.0 mi SSE 9.2 mph - N/A   Overcast
8:40 PM 78.8 °F - 77.0 °F 94% 29.81 in 6.0 mi SSE 10.4 mph - N/A   Overcast
9:48 PM 78.8 °F - 77.0 °F 94% 29.79 in 6.0 mi South 10.4 mph - N/A   Overcast
10:47 PM 78.8 °F - 77.0 °F 94% 29.85 in 6.0 mi South 8.1 mph - N/A   Overcast
11:46 PM 78.8 °F - 77.0 °F 94% 29.84 in 6.0 mi SSE 13.8 mph - N/A   Overcast